Location: Kerberlivit
(48.2787°N, 4.5413°W)
Time: 15:50:11
(UTC+00:00)

Cosmos 921 Rocket - Pass Details

Date: 18 February 2020
Orbit: 572 x 631 km, 75.8° (Epoch: 07 April)

Event Time Altitude Azimuth Distance (km) Brightness Sun altitude
Rises 05:52:56 0° 337° (NNW) 2,916 6.3 -15.3°
Reaches altitude 10° 05:55:13 10° 335° (NNW) 1,997 5.4 -14.9°
Maximum altitude 05:59:38 65° 254° (WSW) 675 3.0 -14.2°
Drops below altitude 10° 06:03:56 10° 173° (S) 1,946 5.7 -13.5°
Sets 06:06:08 0° 170° (S) 2,834 6.6 -13.1°
